This is the latest recevied weather packets stored in our database for station/object OE6JUE. If no packets are shown the sender has not sent any weather packets the latest 1 day(s).
| Time | Temp. | Humidity | Pressure | Rain* | Wind** | Luminosity | Snow |
|---|---|---|---|---|---|---|---|
| 1777984632 | 24.44° C | 31% | 1011.2 hPa | 0 mm | 2.68 m/s, 180° | - | - |
| 1777984333 | 25° C | 31% | 1011.2 hPa | 0 mm | 3.13 m/s, 135° | - | - |
| 1777984032 | 25.56° C | 31% | 1011.2 hPa | 0 mm | 1.79 m/s, 135° | - | - |
| 1777983733 | 26.11° C | 30% | 1011.2 hPa | 0 mm | 1.34 m/s, 180° | - | - |
| 1777983433 | 25.56° C | 30% | 1011.6 hPa | 0 mm | 3.13 m/s, 135° | - | - |
| 1777983132 | 25.56° C | 31% | 1011.4 hPa | 0 mm | 2.24 m/s, 180° | - | - |
| 1777982833 | 24.44° C | 30% | 1011.4 hPa | 0 mm | 2.24 m/s, 315° | - | - |
| 1777982533 | 24.44° C | 30% | 1011.4 hPa | - | 2.68 m/s, 113° | - | - |
| 1777982232 | 24.44° C | 30% | 1011.5 hPa | 0 mm | 3.13 m/s, 135° | - | - |
| 1777981933 | 25° C | 30% | 1011.3 hPa | 0 mm | 1.79 m/s, 158° | - | - |
| 1777981633 | 25° C | 30% | 1011.5 hPa | 0 mm | 1.34 m/s, 135° | - | - |
| 1777981333 | 25° C | 28% | 1011.5 hPa | 0 mm | 2.24 m/s, 158° | - | - |
| 1777981033 | 26.11° C | 28% | 1011.4 hPa | 0 mm | 2.68 m/s, 180° | - | - |
| 1777980733 | 26.11° C | 28% | 1011.3 hPa | 0 mm | 1.34 m/s, 270° | - | - |
| 1777980433 | 26.67° C | 25% | 1011.2 hPa | 0 mm | 2.24 m/s, 180° | - | - |
| 1777980133 | 26.67° C | 25% | 1011.3 hPa | 0 mm | 1.34 m/s, 225° | - | - |
| 1777979832 | 26.67° C | 25% | 1011.3 hPa | 0 mm | 0.45 m/s, 225° | - | - |
| 1777979533 | 26.67° C | 25% | 1011.3 hPa | 0 mm | 2.24 m/s, 135° | - | - |
| 1777979233 | 26.67° C | 25% | 1011.2 hPa | 0 mm | 1.79 m/s, 158° | - | - |
| 1777978932 | 26.67° C | 25% | 1011.2 hPa | - | 1.34 m/s, 225° | - | - |
| 1777978632 | 27.22° C | 26% | 1011.2 hPa | 0 mm | 2.24 m/s, 225° | - | - |
| 1777978332 | 26.11° C | 25% | 1011.3 hPa | 0 mm | 0.89 m/s, 180° | - | - |
| 1777978032 | 26.11° C | 25% | 1011.4 hPa | 0 mm | 1.79 m/s, 135° | - | - |
| 1777977733 | 26.11° C | 25% | 1011.4 hPa | 0 mm | 1.34 m/s, 225° | - | - |
| 1777977432 | 25.56° C | 25% | 1011.5 hPa | 0 mm | 1.34 m/s, 180° | - | - |
* Rain latest hour (hover to see other rain measurements)
** Current wind speed in m/s (hover to see current wind gust speed)